Regional Weather Roundup
Issued by NWS Upton, NY

Current Version | Previous Version | Graphics & Text | Print | Product List | Glossary Off
Versions: 1 2 3 4 5 6 7 8 9 10 11 12 13 14 15 16 17 18 19 20 21 22 23 24 25 26 27 28 29 30 31 32 33 34 35 36 37 38 39 40 41 42 43 44 45 46 47 48 49 50

000
ASUS41 KOKX 291105
RWROKX

REGIONAL WEATHER ROUNDUP
NATIONAL WEATHER SERVICE NEW YORK NY
600 AM EST THU JAN 29 2015

NOTE: "FAIR" INDICATES FEW OR NO CLOUDS BELOW 12,000 FEET WITH NO
SIGNIFICANT WEATHER AND/OR OBSTRUCTIONS TO VISIBILITY.

NYZ071-072-176-178-NJZ106-104-291200-
NEW YORK CITY METRO AREA


CITY           SKY/WX    TMP DP  RH WIND       PRES   REMARKS
CENTRAL PARK   PTCLDY    20   2  45 CALM      30.33R
LAGUARDIA APRT PTCLDY    21   5  50 N6        30.32R WCI  13
KENNEDY INTL   PTCLDY    19   1  45 N8        30.32R WCI   9
NEWARK/LIBERTY PTCLDY    18   2  49 N3        30.33R
BRNX BOT. GARD   N/A    N/A N/A N/A N3        30.32F
TETERBORO      PTCLDY    16   0  49 N6        30.32R WCI   7
$$

NYZ177-179-078>081-291200-
LONG ISLAND NEW YORK

CITY           SKY/WX    TMP DP  RH WIND       PRES   REMARKS
FARMINGDALE    CLEAR     14   2  58 N6        30.30S WCI   5
ISLIP          PTCLDY    16   5  62 N5        30.28R WCI   9
SHIRLEY        PTCLDY    10   0  63 NW3       30.31R
WESTHAMPTON    PTCLDY     3  -5  69 CALM      30.31R
MONTAUK POINT    N/A     24  10  55 N7        30.29S WCI  16
$$

NYZ052-065-067-291200-
HUDSON VALLEY

CITY           SKY/WX    TMP DP  RH WIND       PRES   REMARKS
WHITE PLAINS   PTCLDY    13  -3  49 NW7       30.27R WCI   3
NEWBURGH       CLEAR      1  -2  85 W7        30.31S WCI -11
MONTGOMERY     PTCLDY    -4  -8  83 CALM      30.31R
POUGHKEEPSIE   CLEAR     -2  -8  76 CALM      30.34R
ALBANY         PTCLDY    -2  -8  76 CALM      30.33F
$$

NJZ001-105-106-008-010-013-015-019>022-104-291200-
NEW JERSEY

CITY           SKY/WX    TMP DP  RH WIND       PRES   REMARKS
NEWARK/LIBERTY PTCLDY    18   2  49 N3        30.33R
TETERBORO      PTCLDY    16   0  49 N6        30.32R WCI   7
CALDWELL       PTCLDY    11   1  64 CALM      30.32S
MORRISTOWN     PTCLDY     7   1  78 CALM      30.31S
SOMERVILLE     PTCLDY     4  -1  80 NW3       30.31R
SUSSEX         MOCLDY    -4  -9  79 CALM      30.30R
ANDOVER          N/A     -4  -8  83 CALM      30.30R
TRENTON        PTCLDY    11   1  64 NW3       30.31S
MILLVILLE      CLEAR     11   6  81 W5        30.31S WCI   3
ATLANTIC CITY  PTCLDY    14   4  64 N3        30.31S
WRIGHTSTOWN    PTCLDY     9   4  78 CALM      30.28S
TOMS RIVER     PTCLDY     1   0  92 CALM      30.31S
BELMAR         PTCLDY    10  -2  56 NW5       30.30R WCI   2
$$

PAZ047>061-062-071-291200-
EASTERN PENNSYLVANIA

CITY           SKY/WX    TMP DP  RH WIND       PRES   REMARKS
PHILADELPHIA   PTCLDY    22   5  48 N6        30.33S WCI  14
ALLENTOWN      PTCLDY     4  -3  73 W3        30.31R
SCRANTON       PTCLDY     5   0  79 SE5       30.27S WCI  -4
$$

CTZ002-004>006-009-010-012-RIZ004-006-007-MAZ004-011-015-291200-
SOUTHERN NEW ENGLAND
 IN CT

CITY           SKY/WX    TMP DP  RH WIND       PRES   REMARKS
BRADLEY INTL   PTCLDY     4  -5  66 NW3       30.30S
HARTFORD       PTCLDY     2  -2  83 CALM      30.34R
DANBURY        MOCLDY    -3  -9  75 CALM      30.29S
WTRBRY/OXFORD  CLEAR     10  -8  44 N3        30.25S
BRIDGEPORT     PTCLDY    14   3  61 CALM      30.31R
MERIDEN        PTCLDY     1  -4  79 CALM      30.33R
NEW HAVEN      PTCLDY    15   1  53 N9        30.31R WCI   3
CHESTER        FAIR      16   0  48 NW7       30.28R WCI   6
GROTON         PTCLDY     9  -4  55 N7        30.29S WCI  -2
WILLIMANTIC    PTCLDY    -4 -10  75 NE3       30.30S

 IN RI

CITY           SKY/WX    TMP DP  RH WIND       PRES   REMARKS
PROVIDENCE     PTCLDY     6  -1  73 W3        30.29F
BLOCK ISLAND   PTCLDY    21   9  58 N6        30.26R WCI  14
WESTERLY       PTCLDY     2  -5  72 N5        30.29S WCI  -8

 IN MA

CITY           SKY/WX    TMP DP  RH WIND       PRES   REMARKS
BOSTON         PTCLDY    14  -1  51 NW5       30.29F WCI   6
WORCESTER      PTCLDY    18  -8  31 N3        30.21R
WESTFIELD      PTCLDY    -4 -10  75 CALM      30.31S
PROVINCETOWN   CLEAR     28  16  59 N13       30.26R WCI  18
NANTUCKET      CLEAR     27  21  78 N8        30.24R WCI  19
$$

ANZ330-335-338-340-345-350-353-355-291200-
COASTAL MARINE OBSERVATIONS


STATION/POSITION TIME  SKY/WX   TEMP    WIND        PRES    VSBY  WAVE
                                AIR SEA DIR/SP/G                  HT/PER
                 (UTC)          (F)     (DEG/KT/KT) (MB)    (MI)  (FT/S)
NY HARB ENTRANCE 1100            26 39   30/ 12/ 16 1025.7          2/12
4S FIRE IS       1000               37                N/A           2/13
20S FIRE ISLAND  1000               42              1025.9          3/ 4
23SW MTP         1100                                 N/A           3/11
HUDSON CANYON    NOT AVBL
EXECUTION ROCKS  1100            22 33  350/  6/  8   N/A
WESTERN LI SOUND 1100            22      10/  6/ 10   N/A           0
CENTRAL LI SOUND 1000            24 35   30/ 12/ 14   N/A           2/ 3
EASTERN LI SOUND NOT AVBL
ROBBINS REEF     1100            20     330/ 10/ 12 1025.5
$$


>>>>>>>>>>>>>>>>>>>>>>>>>>>> KEY <<<<<<<<<<<<<<<<<<<<<<<<<<<
>                                                          <
>     SKY/WX - SKY CONDITION/PRESENT WEATHER               <
>     TMP    - TEMPERATURE IN FAHRENHEIT                   <
>     DP     - DEWPOINT IN FAHRENHEIT                      <
>     RH     - RELATIVE HUMIDITY IN PERCENT                <
>     WIND   - DIRECTION AND SPEED IN MPH                  <
>     PRES   - MEAN SEA LEVEL PRESSURE IN INCHES OF HG     <
>     WCI    - WIND CHILL INDEX                            <
>     VSB    - VISIBILITY IN MILES                         <
>     HX     - HEAT INDEX                                  <
>     TC     - TEMPERATURE IN CELSIUS                      <
>     VRB    - VARIABLE WIND DIRECTION                     <
>                                                          <
>>>>>>>>>>>>>>>>>>>>>>>>>>>> KEY <<<<<<<<<<<<<<<<<<<<<<<<<<<




USA.gov is the U.S. government's official web portal to all federal, state and local government web resources and services.